Location: Ammareddip?lem
(16.9681°N, 80.4999°E)
Time: 13:47:23
(UTC+00:00)

X-37B - Visible Passes

Search period start: 23 October 2021 00:00
Search period end: 02 November 2021 00:00
Orbit: 342 x 346 km, 45.0° (Epoch: 22 October)

Date Brightness Start Highest point End Pass type
(mag) Time Alt. Az. Time Alt. Az. Time Alt. Az.
29 Oct 2.9 13:38:02 10° NW 13:38:46 16° NW 13:38:46 16° NW visible
30 Oct 3.8 14:01:49 10° W 14:02:17 13° W 14:02:17 13° W visible
31 Oct 0.2 12:48:58 10° NW 12:51:50 73° NE 12:54:40 10° SE visible
01 Nov 3.3 13:12:58 10° W 13:15:01 18° SW 13:17:04 10° S visible
